17-05-2023, 00:00:03,    334,    0.0,    7.3,   0.00,   0.00, 1023.1,   76.7, -999.0
17-05-2023, 00:00:13,    334,    0.0,    7.3,   0.00,   0.00, 1023.2,   76.9, -999.0
17-05-2023, 00:00:24,    334,    0.0,    7.2,   0.00,   0.00, 1023.1,   76.9, -999.0
17-05-2023, 00:00:33,    334,    0.0,    7.3,   0.00,   0.00, 1023.1,   77.0, -999.0
17-05-2023, 00:00:43,    334,    0.0,    7.3,   0.00,   0.00, 1023.1,   77.0, -999.0
17-05-2023, 00:00:53,    334,    0.0,    7.2,   0.00,   0.00, 1023.1,   76.9, -999.0
17-05-2023, 00:01:03,    334,    0.0,    7.3,   0.00,   0.00, 1023.1,   77.0, -999.0
17-05-2023, 00:01:13,    334,    0.0,    7.3,   0.00,   0.00, 1023.1,   77.1, -999.0
17-05-2023, 00:01:23,    334,    0.0,    7.3,   0.00,   0.00, 1023.1,   77.0, -999.0
17-05-2023, 00:01:33,    334,    0.0,    7.3,   0.00,   0.00, 1023.1,   77.1, -999.0
17-05-2023, 00:01:43,    335,    0.0,    7.3,   0.00,   0.00, 1023.1,   77.1, -999.0
17-05-2023, 00:01:53,    334,    0.0,    7.3,   0.00,   0.00, 1023.1,   77.2, -999.0
17-05-2023, 00:02:03,    334,    0.0,    7.3,   0.00,   0.00, 1023.1,   77.2, -999.0
17-05-2023, 00:02:13,    334,    0.0,    7.2,   0.00,   0.00, 1023.1,   77.1, -999.0
17-05-2023, 00:02:23,    334,    0.0,    7.2,   0.00,   0.00, 1023.1,   77.1, -999.0
17-05-2023, 00:02:33,    335,    0.0,    7.2,   0.00,   0.00, 1023.1,   77.3, -999.0
17-05-2023, 00:02:43,    334,    0.0,    7.3,   0.00,   0.00, 1023.1,   77.3, -999.0
17-05-2023, 00:02:53,    334,    0.0,    7.2,   0.00,   0.00, 1023.1,   77.4, -999.0
17-05-2023, 00:03:03,    334,    0.0,    7.2,   0.00,   0.00, 1023.1,   77.2, -999.0
17-05-2023, 00:03:13,    334,    0.0,    7.3,   0.00,   0.00, 1023.1,   77.4, -999.0
17-05-2023, 00:03:23,    334,    0.0,    7.3,   0.00,   0.00, 1023.1,   77.4, -999.0
17-05-2023, 00:03:33,    334,    0.0,    7.3,   0.00,   0.00, 1023.1,   77.5, -999.0
17-05-2023, 00:03:43,    334,    0.0,    7.3,   0.00,   0.00, 1023.1,   77.6, -999.0
17-05-2023, 00:03:53,    334,    0.0,    7.3,   0.00,   0.00, 1023.2,   77.6, -999.0
17-05-2023, 00:04:03,    334,    0.0,    7.3,   0.00,   0.00, 1023.1,   77.5, -999.0
17-05-2023, 00:04:13,    334,    0.0,    7.3,   0.00,   0.00, 1023.2,   77.7, -999.0
17-05-2023, 00:04:23,    334,    0.0,    7.3,   0.00,   0.00, 1023.1,   77.6, -999.0
17-05-2023, 00:04:33,    334,    0.0,    7.3,   0.00,   0.00, 1023.1,   77.4, -999.0
17-05-2023, 00:04:43,    335,    0.0,    7.3,   0.00,   0.00, 1023.1,   77.3, -999.0
17-05-2023, 00:04:53,    334,    0.0,    7.3,   0.00,   0.00, 1023.2,   77.4, -999.0
17-05-2023, 00:05:03,    334,    0.0,    7.3,   0.00,   0.00, 1023.1,   77.4, -999.0
17-05-2023, 00:05:13,    334,    0.0,    7.1,   0.00,   0.00, 1023.2,   77.3, -999.0
17-05-2023, 00:05:23,    334,    0.0,    7.3,   0.00,   0.00, 1023.1,   77.4, -999.0
17-05-2023, 00:05:33,    334,    0.0,    7.3,   0.00,   0.00, 1023.2,   77.7, -999.0
17-05-2023, 00:05:43,    334,    0.0,    7.3,   0.00,   0.00, 1023.1,   77.5, -999.0
17-05-2023, 00:05:53,    334,    0.0,    7.3,   0.00,   0.00, 1023.2,   77.6, -999.0
17-05-2023, 00:06:03,    334,    0.0,    7.3,   0.00,   0.00, 1023.2,   77.6, -999.0
17-05-2023, 00:06:13,    334,    0.0,    7.3,   0.00,   0.00, 1023.2,   77.4, -999.0
17-05-2023, 00:06:23,    334,    0.0,    7.3,   0.00,   0.00, 1023.2,   77.4, -999.0
17-05-2023, 00:06:33,    334,    0.0,    7.3,   0.00,   0.00, 1023.2,   77.3, -999.0
17-05-2023, 00:06:42,    334,    0.0,    7.2,   0.00,   0.00, 1023.2,   77.4, -999.0
17-05-2023, 00:06:53,    334,    0.0,    7.2,   0.00,   0.00, 1023.2,   77.4, -999.0
17-05-2023, 00:07:03,    334,    0.0,    7.2,   0.00,   0.00, 1023.2,   77.5, -999.0
17-05-2023, 00:07:12,    334,    0.0,    7.3,   0.00,   0.00, 1023.2,   77.6, -999.0
17-05-2023, 00:07:22,    335,    0.0,    7.3,   0.00,   0.00, 1023.1,   77.6, -999.0
17-05-2023, 00:07:33,    334,    0.0,    7.3,   0.00,   0.00, 1023.2,   77.7, -999.0
17-05-2023, 00:07:43,    334,    0.0,    7.3,   0.00,   0.00, 1023.2,   77.7, -999.0
17-05-2023, 00:07:52,    334,    0.0,    7.3,   0.00,   0.00, 1023.2,   77.6, -999.0
17-05-2023, 00:08:02,    334,    0.0,    7.3,   0.00,   0.00, 1023.1,   77.6, -999.0
17-05-2023, 00:08:13,    334,    0.0,    7.2,   0.00,   0.00, 1023.2,   77.6, -999.0
17-05-2023, 00:08:22,    334,    0.0,    7.2,   0.00,   0.00, 1023.2,   77.6, -999.0
17-05-2023, 00:08:32,    334,    0.0,    7.3,   0.00,   0.00, 1023.1,   77.7, -999.0
17-05-2023, 00:08:42,    334,    0.0,    7.3,   0.00,   0.00, 1023.1,   77.7, -999.0
17-05-2023, 00:08:53,    336,    0.0,    7.3,   0.00,   0.00, 1023.1,   77.6, -999.0
17-05-2023, 00:09:02,    334,    0.0,    7.2,   0.00,   0.00, 1023.1,   77.6, -999.0
17-05-2023, 00:09:12,    334,    0.0,    7.3,   0.00,   0.00, 1023.1,   77.6, -999.0
17-05-2023, 00:09:22,    334,    0.0,    7.2,   0.00,   0.00, 1023.1,   77.7, -999.0
17-05-2023, 00:09:32,    334,    0.0,    7.2,   0.00,   0.00, 1023.2,   77.8, -999.0
17-05-2023, 00:09:42,    334,    0.0,    7.2,   0.00,   0.00, 1023.1,   77.7, -999.0
17-05-2023, 00:09:52,    334,    0.0,    7.3,   0.00,   0.00, 1023.2,   77.8, -999.0
17-05-2023, 00:10:02,    334,    0.0,    7.3,   0.00,   0.00, 1023.2,   77.9, -999.0
17-05-2023, 00:10:12,    334,    0.0,    7.2,   0.00,   0.00, 1023.2,   77.8, -999.0
17-05-2023, 00:10:22,    334,    0.0,    7.2,   0.00,   0.00, 1023.2,   77.8, -999.0
17-05-2023, 00:10:32,    335,    0.0,    7.2,   0.00,   0.00, 1023.2,   77.9, -999.0
17-05-2023, 00:10:42,    334,    0.0,    7.2,   0.00,   0.00, 1023.2,   77.9, -999.0
17-05-2023, 00:10:52,    334,    0.0,    7.1,   0.00,   0.00, 1023.2,   78.1, -999.0
17-05-2023, 00:11:02,    334,    0.0,    7.1,   0.00,   0.00, 1023.2,   78.0, -999.0
17-05-2023, 00:11:12,    334,    0.0,    7.1,   0.00,   0.00, 1023.2,   78.1, -999.0
17-05-2023, 00:11:22,    334,    0.0,    7.1,   0.00,   0.00, 1023.2,   78.1, -999.0
17-05-2023, 00:11:32,    334,    0.0,    7.1,   0.00,   0.00, 1023.2,   78.2, -999.0
17-05-2023, 00:11:42,    334,    0.0,    7.1,   0.00,   0.00, 1023.2,   78.3, -999.0
17-05-2023, 00:11:52,    334,    0.0,    7.2,   0.00,   0.00, 1023.2,   78.4, -999.0
17-05-2023, 00:12:02,    334,    0.0,    7.2,   0.00,   0.00, 1023.2,   78.3, -999.0
17-05-2023, 00:12:12,    334,    0.0,    7.1,   0.00,   0.00, 1023.2,   78.4, -999.0
17-05-2023, 00:12:22,    334,    0.0,    7.1,   0.00,   0.00, 1023.2,   78.4, -999.0
17-05-2023, 00:12:32,    334,    0.0,    7.0,   0.00,   0.00, 1023.2,   78.5, -999.0
17-05-2023, 00:12:42,    334,    0.0,    7.0,   0.00,   0.00, 1023.2,   78.6, -999.0
17-05-2023, 00:12:52,    334,    0.0,    7.1,   0.00,   0.00, 1023.2,   78.7, -999.0
17-05-2023, 00:13:02,    334,    0.0,    7.1,   0.00,   0.00, 1023.2,   78.8, -999.0
17-05-2023, 00:13:12,    334,    0.0,    7.1,   0.00,   0.00, 1023.2,   78.8, -999.0
17-05-2023, 00:13:22,    334,    0.0,    7.0,   0.00,   0.00, 1023.3,   78.9, -999.0
17-05-2023, 00:13:32,    334,    0.0,    7.0,   0.00,   0.00, 1023.2,   79.0, -999.0
17-05-2023, 00:13:42,    334,    0.0,    7.0,   0.00,   0.00, 1023.2,   79.1, -999.0
17-05-2023, 00:13:52,    334,    0.0,    7.0,   0.00,   0.00, 1023.2,   79.3, -999.0
17-05-2023, 00:14:02,    334,    0.0,    7.0,   0.00,   0.00, 1023.2,   79.4, -999.0
17-05-2023, 00:14:12,    334,    0.0,    7.1,   0.00,   0.00, 1023.2,   79.3, -999.0
17-05-2023, 00:14:22,    335,    0.0,    7.1,   0.00,   0.00, 1023.2,   79.4, -999.0
17-05-2023, 00:14:32,    334,    0.0,    7.0,   0.00,   0.00, 1023.2,   79.4, -999.0
17-05-2023, 00:14:42,    334,    0.0,    7.0,   0.00,   0.00, 1023.2,   79.6, -999.0
17-05-2023, 00:14:52,    333,    0.0,    7.0,   0.00,   0.00, 1023.2,   79.6, -999.0
17-05-2023, 00:15:01,    334,    0.0,    7.0,   0.00,   0.00, 1023.2,   79.6, -999.0
17-05-2023, 00:15:12,    334,    0.0,    7.1,   0.00,   0.00, 1023.2,   79.7, -999.0
17-05-2023, 00:15:22,    334,    0.0,    7.1,   0.00,   0.00, 1023.2,   79.8, -999.0
17-05-2023, 00:15:32,    334,    0.0,    7.0,   0.00,   0.00, 1023.3,   79.9, -999.0
17-05-2023, 00:15:41,    334,    0.0,    7.0,   0.00,   0.00, 1023.2,   79.9, -999.0
17-05-2023, 00:15:52,    334,    0.0,    7.0,   0.00,   0.00, 1023.2,   79.9, -999.0
17-05-2023, 00:16:03,    334,    0.0,    7.0,   0.00,   0.00, 1023.2,   80.0, -999.0
17-05-2023, 00:16:11,    334,    0.0,    7.0,   0.00,   0.00, 1023.3,   80.0, -999.0
17-05-2023, 00:16:21,    334,    0.0,    7.1,   0.00,   0.00, 1023.2,   79.9, -999.0
17-05-2023, 00:16:32,    334,    0.0,    7.1,   0.00,   0.00, 1023.2,   79.9, -999.0
17-05-2023, 00:16:42,    334,    0.0,    7.0,   0.00,   0.00, 1023.2,   79.9, -999.0
17-05-2023, 00:16:51,    334,    0.0,    7.0,   0.00,   0.00, 1023.2,   79.7, -999.0
17-05-2023, 00:17:01,    334,    0.0,    6.9,   0.00,   0.00, 1023.3,   79.7, -999.0
17-05-2023, 00:17:12,    335,    0.0,    7.0,   0.00,   0.00, 1023.2,   79.9, -999.0
17-05-2023, 00:17:21,    334,    0.0,    7.0,   0.00,   0.00, 1023.2,   80.0, -999.0
17-05-2023, 00:17:32,    334,    0.0,    7.0,   0.00,   0.00, 1023.2,   80.1, -999.0
17-05-2023, 00:17:41,    334,    0.0,    7.0,   0.00,   0.00, 1023.2,   80.2, -999.0
17-05-2023, 00:17:52,    334,    0.0,    7.0,   0.00,   0.00, 1023.2,   80.3, -999.0
17-05-2023, 00:18:01,    334,    0.0,    6.8,   0.00,   0.00, 1023.2,   80.3, -999.0
17-05-2023, 00:18:11,    334,    0.0,    6.9,   0.00,   0.00, 1023.2,   80.3, -999.0
17-05-2023, 00:18:21,    334,    0.0,    7.0,   0.00,   0.00, 1023.2,   80.4, -999.0
17-05-2023, 00:18:31,    334,    0.0,    7.0,   0.00,   0.00, 1023.2,   80.2, -999.0
17-05-2023, 00:18:41,    334,    0.0,    6.9,   0.00,   0.00, 1023.2,   80.2, -999.0
17-05-2023, 00:18:51,    334,    0.0,    6.9,   0.00,   0.00, 1023.2,   80.2, -999.0
17-05-2023, 00:19:01,    334,    0.0,    6.9,   0.00,   0.00, 1023.2,   80.4, -999.0
17-05-2023, 00:19:11,    334,    0.0,    7.0,   0.00,   0.00, 1023.2,   80.4, -999.0
17-05-2023, 00:19:21,    334,    0.0,    7.0,   0.00,   0.00, 1023.2,   80.7, -999.0
17-05-2023, 00:19:31,    334,    0.0,    7.0,   0.00,   0.00, 1023.2,   80.8, -999.0
17-05-2023, 00:19:41,    334,    0.0,    6.9,   0.00,   0.00, 1023.2,   80.7, -999.0
17-05-2023, 00:19:51,    334,    0.0,    7.0,   0.00,   0.00, 1023.2,   80.6, -999.0
17-05-2023, 00:20:01,    334,    0.0,    6.9,   0.00,   0.00, 1023.2,   80.5, -999.0
17-05-2023, 00:20:11,    334,    0.0,    6.8,   0.00,   0.00, 1023.2,   80.5, -999.0
17-05-2023, 00:20:21,    334,    0.0,    6.9,   0.00,   0.00, 1023.2,   80.5, -999.0
17-05-2023, 00:20:31,    334,    0.0,    6.9,   0.00,   0.00, 1023.2,   80.4, -999.0
17-05-2023, 00:20:41,    333,    0.0,    6.8,   0.00,   0.00, 1023.2,   80.4, -999.0
17-05-2023, 00:20:51,    335,    0.0,    6.9,   0.00,   0.00, 1023.2,   80.8, -999.0
17-05-2023, 00:21:01,    334,    0.0,    6.9,   0.00,   0.00, 1023.2,   80.9, -999.0
17-05-2023, 00:21:11,    334,    0.0,    7.0,   0.00,   0.00, 1023.2,   81.0, -999.0
17-05-2023, 00:21:21,    334,    0.0,    7.0,   0.00,   0.00, 1023.3,   81.1, -999.0
17-05-2023, 00:21:31,    334,    0.0,    7.0,   0.00,   0.00, 1023.2,   81.3, -999.0
17-05-2023, 00:21:41,    334,    0.0,    7.0,   0.00,   0.00, 1023.2,   81.3, -999.0
17-05-2023, 00:21:51,    334,    0.0,    7.0,   0.00,   0.00, 1023.2,   81.3, -999.0
17-05-2023, 00:22:01,    334,    0.0,    7.0,   0.00,   0.00, 1023.2,   81.4, -999.0
17-05-2023, 00:22:11,    334,    0.0,    7.0,   0.00,   0.00, 1023.2,   81.4, -999.0
17-05-2023, 00:22:21,    334,    0.0,    7.0,   0.00,   0.00, 1023.2,   81.3, -999.0
17-05-2023, 00:22:31,    334,    0.0,    7.0,   0.00,   0.00, 1023.3,   81.4, -999.0
17-05-2023, 00:22:41,    334,    0.0,    7.0,   0.00,   0.00, 1023.2,   81.4, -999.0
17-05-2023, 00:22:51,    334,    0.0,    6.9,   0.00,   0.00, 1023.2,   81.3, -999.0
17-05-2023, 00:23:01,    334,    0.0,    7.1,   0.00,   0.00, 1023.2,   81.3, -999.0
17-05-2023, 00:23:11,    335,    0.0,    7.1,   0.00,   0.00, 1023.2,   81.3, -999.0
17-05-2023, 00:23:21,    334,    0.0,    7.0,   0.00,   0.00, 1023.2,   81.2, -999.0
17-05-2023, 00:23:31,    334,    0.0,    7.1,   0.00,   0.00, 1023.2,   81.0, -999.0
17-05-2023, 00:23:41,    334,    0.0,    7.1,   0.00,   0.00, 1023.2,   81.1, -999.0
17-05-2023, 00:23:51,    334,    0.0,    7.1,   0.00,   0.00, 1023.2,   81.1, -999.0
17-05-2023, 00:24:01,    334,    0.0,    7.0,   0.00,   0.00, 1023.2,   81.1, -999.0
17-05-2023, 00:24:10,    334,    0.0,    7.0,   0.00,   0.00, 1023.2,   81.0, -999.0
17-05-2023, 00:24:21,    335,    0.0,    7.1,   0.00,   0.00, 1023.2,   81.1, -999.0
17-05-2023, 00:24:31,    334,    0.0,    7.1,   0.00,   0.00, 1023.2,   80.9, -999.0
17-05-2023, 00:24:40,    334,    0.0,    7.1,   0.00,   0.00, 1023.2,   80.9, -999.0
17-05-2023, 00:24:51,    334,    0.0,    7.1,   0.00,   0.00, 1023.1,   80.9, -999.0
17-05-2023, 00:25:01,    334,    0.0,    7.2,   0.00,   0.00, 1023.2,   80.8, -999.0
17-05-2023, 00:25:10,    334,    0.0,    7.1,   0.00,   0.00, 1023.2,   80.8, -999.0
17-05-2023, 00:25:20,    334,    0.0,    7.1,   0.00,   0.00, 1023.2,   80.7, -999.0
17-05-2023, 00:25:31,    334,    0.0,    7.1,   0.00,   0.00, 1023.2,   80.6, -999.0
17-05-2023, 00:25:41,    334,    0.0,    7.1,   0.00,   0.00, 1023.2,   80.6, -999.0
17-05-2023, 00:25:50,    334,    0.0,    7.1,   0.00,   0.00, 1023.2,   80.5, -999.0
17-05-2023, 00:26:00,    334,    0.0,    7.1,   0.00,   0.00, 1023.2,   80.4, -999.0
17-05-2023, 00:26:11,    334,    0.0,    7.1,   0.00,   0.00, 1023.2,   80.4, -999.0
17-05-2023, 00:26:20,    334,    0.0,    7.1,   0.00,   0.00, 1023.2,   80.5, -999.0
17-05-2023, 00:26:30,    334,    0.0,    7.1,   0.00,   0.00, 1023.2,   80.5, -999.0
17-05-2023, 00:26:40,    334,    0.0,    7.1,   0.00,   0.00, 1023.2,   80.5, -999.0
17-05-2023, 00:26:50,    334,    0.0,    7.1,   0.00,   0.00, 1023.2,   80.5, -999.0
17-05-2023, 00:27:00,    334,    0.0,    7.2,   0.00,   0.00, 1023.2,   80.4, -999.0
17-05-2023, 00:27:10,    334,    0.0,    7.2,   0.00,   0.00, 1023.2,   80.3, -999.0
17-05-2023, 00:27:21,    334,    0.0,    7.2,   0.00,   0.00, 1023.2,   80.4, -999.0
17-05-2023, 00:27:30,    334,    0.0,    7.2,   0.00,   0.00, 1023.2,   80.5, -999.0
17-05-2023, 00:27:40,    334,    0.0,    7.2,   0.00,   0.00, 1023.2,   80.4, -999.0
17-05-2023, 00:27:50,    335,    0.0,    7.1,   0.00,   0.00, 1023.2,   80.5, -999.0
17-05-2023, 00:28:00,    334,    0.0,    7.1,   0.00,   0.00, 1023.2,   80.5, -999.0
17-05-2023, 00:28:10,    334,    0.0,    7.1,   0.00,   0.00, 1023.2,   80.5, -999.0
17-05-2023, 00:28:20,    334,    0.0,    7.2,   0.00,   0.00, 1023.2,   80.3, -999.0
17-05-2023, 00:28:30,    334,    0.0,    7.1,   0.00,   0.00, 1023.2,   80.4, -999.0
17-05-2023, 00:28:40,    334,    0.0,    7.1,   0.00,   0.00, 1023.2,   80.5, -999.0
17-05-2023, 00:28:50,    334,    0.0,    7.1,   0.00,   0.00, 1023.2,   80.5, -999.0
17-05-2023, 00:29:00,    334,    0.0,    7.3,   0.00,   0.00, 1023.2,   80.4, -999.0
17-05-2023, 00:29:10,    334,    0.0,    7.2,   0.00,   0.00, 1023.2,   80.3, -999.0
17-05-2023, 00:29:20,    334,    0.0,    7.1,   0.00,   0.00, 1023.2,   80.2, -999.0
17-05-2023, 00:29:30,    334,    0.0,    7.1,   0.00,   0.00, 1023.2,   79.9, -999.0
17-05-2023, 00:29:40,    334,    0.0,    7.2,   0.00,   0.00, 1023.2,   79.9, -999.0
17-05-2023, 00:29:50,    334,    0.0,    7.1,   0.00,   0.00, 1023.2,   80.0, -999.0
17-05-2023, 00:30:00,    334,    0.0,    7.1,   0.00,   0.00, 1023.2,   80.0, -999.0
17-05-2023, 00:30:10,    334,    0.0,    7.2,   0.00,   0.00, 1023.2,   80.2, -999.0
17-05-2023, 00:30:20,    335,    0.0,    7.1,   0.00,   0.00, 1023.2,   80.1, -999.0
17-05-2023, 00:30:30,    334,    0.0,    7.1,   0.00,   0.00, 1023.2,   80.3, -999.0
17-05-2023, 00:30:40,    334,    0.0,    7.1,   0.00,   0.00, 1023.2,   80.3, -999.0
17-05-2023, 00:30:50,    334,    0.0,    7.1,   0.00,   0.00, 1023.2,   80.3, -999.0
17-05-2023, 00:31:00,    334,    0.0,    7.1,   0.00,   0.00, 1023.2,   80.1, -999.0
17-05-2023, 00:31:10,    334,    0.0,    7.1,   0.00,   0.00, 1023.2,   80.1, -999.0
17-05-2023, 00:31:20,    334,    0.0,    7.1,   0.00,   0.00, 1023.2,   80.2, -999.0
17-05-2023, 00:31:30,    334,    0.0,    7.1,   0.00,   0.00, 1023.2,   80.3, -999.0
17-05-2023, 00:31:40,    334,    0.0,    7.2,   0.00,   0.00, 1023.2,   80.4, -999.0
17-05-2023, 00:31:50,    334,    0.0,    7.1,   0.00,   0.00, 1023.2,   80.4, -999.0
17-05-2023, 00:32:00,    334,    0.0,    7.1,   0.00,   0.00, 1023.2,   80.3, -999.0
17-05-2023, 00:32:10,    334,    0.0,    7.1,   0.00,   0.00, 1023.2,   80.1, -999.0
17-05-2023, 00:32:20,    334,    0.0,    7.1,   0.00,   0.00, 1023.2,   80.2, -999.0
17-05-2023, 00:32:29,    334,    0.0,    7.1,   0.00,   0.00, 1023.2,   79.9, -999.0
17-05-2023, 00:32:40,    334,    0.0,    7.1,   0.00,   0.00, 1023.2,   80.0, -999.0
17-05-2023, 00:32:50,    334,    0.0,    7.1,   0.00,   0.00, 1023.2,   80.1, -999.0
17-05-2023, 00:33:00,    334,    0.0,    7.1,   0.00,   0.00, 1023.2,   80.1, -999.0
17-05-2023, 00:33:09,    334,    0.0,    7.0,   0.00,   0.00, 1023.2,   80.1, -999.0
17-05-2023, 00:33:20,    334,    0.0,    7.2,   0.00,   0.00, 1023.2,   80.1, -999.0
17-05-2023, 00:33:30,    334,    0.0,    7.2,   0.00,   0.00, 1023.2,   80.1, -999.0
17-05-2023, 00:33:39,    333,    0.0,    7.2,   0.00,   0.00, 1023.2,   80.0, -999.0
17-05-2023, 00:33:49,    334,    0.0,    7.2,   0.00,   0.00, 1023.3,   79.9, -999.0
17-05-2023, 00:34:00,    334,    0.0,    7.1,   0.00,   0.00, 1023.2,   79.9, -999.0
17-05-2023, 00:34:10,    334,    0.0,    7.1,   0.00,   0.00, 1023.3,   79.8, -999.0
17-05-2023, 00:34:19,    334,    0.0,    7.1,   0.00,   0.00, 1023.3,   79.8, -999.0
17-05-2023, 00:34:29,    334,    0.0,    7.2,   0.00,   0.00, 1023.3,   79.7, -999.0
17-05-2023, 00:34:40,    334,    0.0,    7.1,   0.00,   0.00, 1023.2,   79.8, -999.0
17-05-2023, 00:34:49,    334,    0.0,    7.1,   0.00,   0.00, 1023.3,   79.6, -999.0
17-05-2023, 00:34:59,    334,    0.0,    7.0,   0.00,   0.00, 1023.3,   79.5, -999.0
17-05-2023, 00:35:09,    334,    0.0,    7.0,   0.00,   0.00, 1023.2,   79.5, -999.0
17-05-2023, 00:35:20,    334,    0.0,    7.1,   0.00,   0.00, 1023.3,   79.4, -999.0
17-05-2023, 00:35:29,    334,    0.0,    7.0,   0.00,   0.00, 1023.3,   79.6, -999.0
17-05-2023, 00:35:39,    334,    0.0,    7.1,   0.00,   0.00, 1023.3,   79.7, -999.0
17-05-2023, 00:35:49,    334,    0.0,    7.1,   0.00,   0.00, 1023.3,   79.9, -999.0
17-05-2023, 00:35:59,    334,    0.0,    7.1,   0.00,   0.00, 1023.3,   80.0, -999.0
17-05-2023, 00:36:09,    334,    0.0,    7.0,   0.00,   0.00, 1023.3,   79.9, -999.0
17-05-2023, 00:36:19,    334,    0.0,    7.1,   0.00,   0.00, 1023.3,   79.9, -999.0
17-05-2023, 00:36:29,    334,    0.0,    7.1,   0.00,   0.00, 1023.3,   80.1, -999.0
17-05-2023, 00:36:39,    332,    0.0,    7.0,   0.00,   0.00, 1023.3,   80.2, -999.0
17-05-2023, 00:36:49,    334,    0.0,    7.0,   0.00,   0.00, 1023.3,   80.2, -999.0
17-05-2023, 00:36:59,    334,    0.0,    7.0,   0.00,   0.00, 1023.3,   80.1, -999.0
17-05-2023, 00:37:09,    334,    0.0,    7.0,   0.00,   0.00, 1023.3,   79.9, -999.0
17-05-2023, 00:37:19,    334,    0.0,    7.0,   0.00,   0.00, 1023.3,   79.8, -999.0
17-05-2023, 00:37:29,    334,    0.0,    7.0,   0.00,   0.00, 1023.3,   79.8, -999.0
17-05-2023, 00:37:39,    334,    0.0,    6.9,   0.00,   0.00, 1023.3,   80.1, -999.0
17-05-2023, 00:37:49,    334,    0.0,    7.0,   0.00,   0.00, 1023.3,   80.4, -999.0
17-05-2023, 00:37:59,    334,    0.0,    7.0,   0.00,   0.00, 1023.3,   80.4, -999.0
17-05-2023, 00:38:09,    334,    0.0,    6.9,   0.00,   0.00, 1023.3,   80.4, -999.0
17-05-2023, 00:38:19,    334,    0.0,    7.0,   0.00,   0.00, 1023.3,   80.5, -999.0
17-05-2023, 00:38:29,    334,    0.0,    7.0,   0.00,   0.00, 1023.3,   80.5, -999.0
17-05-2023, 00:38:39,    334,    0.0,    7.0,   0.00,   0.00, 1023.3,   80.5, -999.0
17-05-2023, 00:38:49,    334,    0.0,    6.9,   0.00,   0.00, 1023.3,   80.3, -999.0
17-05-2023, 00:38:59,    334,    0.0,    7.0,   0.00,   0.00, 1023.3,   80.3, -999.0
17-05-2023, 00:39:09,    334,    0.0,    7.0,   0.00,   0.00, 1023.3,   80.3, -999.0
17-05-2023, 00:39:19,    334,    0.0,    7.2,   0.00,   0.00, 1023.3,   80.5, -999.0
17-05-2023, 00:39:29,    334,    0.0,    7.2,   0.00,   0.00, 1023.3,   80.5, -999.0
17-05-2023, 00:39:39,    334,    0.0,    7.1,   0.00,   0.00, 1023.3,   80.3, -999.0
17-05-2023, 00:39:49,    334,    0.0,    7.0,   0.00,   0.00, 1023.3,   80.3, -999.0
17-05-2023, 00:39:59,    334,    0.0,    7.0,   0.00,   0.00, 1023.3,   80.4, -999.0
17-05-2023, 00:40:09,    334,    0.0,    7.0,   0.00,   0.00, 1023.3,   80.3, -999.0
17-05-2023, 00:40:19,    334,    0.0,    7.0,   0.00,   0.00, 1023.3,   80.3, -999.0
17-05-2023, 00:40:29,    334,    0.0,    7.0,   0.00,   0.00, 1023.2,   80.5, -999.0
17-05-2023, 00:40:39,    335,    0.0,    7.1,   0.00,   0.00, 1023.2,   80.4, -999.0
17-05-2023, 00:40:49,    334,    0.0,    7.0,   0.00,   0.00, 1023.3,   80.5, -999.0
17-05-2023, 00:40:58,    334,    0.0,    7.1,   0.00,   0.00, 1023.2,   80.4, -999.0
17-05-2023, 00:41:09,    334,    0.0,    7.1,   0.00,   0.00, 1023.3,   80.3, -999.0
17-05-2023, 00:41:19,    334,    0.0,    7.0,   0.00,   0.00, 1023.2,   80.1, -999.0
17-05-2023, 00:41:29,    334,    0.0,    7.1,   0.00,   0.00, 1023.2,   80.2, -999.0
17-05-2023, 00:41:38,    334,    0.0,    7.1,   0.00,   0.00, 1023.2,   80.2, -999.0
17-05-2023, 00:41:49,    334,    0.0,    7.0,   0.00,   0.00, 1023.2,   80.3, -999.0
17-05-2023, 00:41:59,    334,    0.0,    7.1,   0.00,   0.00, 1023.2,   80.3, -999.0
17-05-2023, 00:42:08,    334,    0.0,    7.2,   0.00,   0.00, 1023.2,   80.3, -999.0
17-05-2023, 00:42:19,    334,    0.0,    7.0,   0.00,   0.00, 1023.2,   80.4, -999.0
17-05-2023, 00:42:29,    334,    0.0,    7.1,   0.00,   0.00, 1023.2,   80.5, -999.0
17-05-2023, 00:42:38,    334,    0.0,    7.0,   0.00,   0.00, 1023.2,   80.4, -999.0
17-05-2023, 00:42:48,    334,    0.0,    7.1,   0.00,   0.00, 1023.2,   80.3, -999.0
17-05-2023, 00:42:59,    334,    0.0,    7.1,   0.00,   0.00, 1023.2,   80.3, -999.0
17-05-2023, 00:43:09,    334,    0.0,    7.1,   0.00,   0.00, 1023.2,   80.2, -999.0
17-05-2023, 00:43:18,    334,    0.0,    7.1,   0.00,   0.00, 1023.2,   80.1, -999.0
17-05-2023, 00:43:28,    334,    0.0,    7.0,   0.00,   0.00, 1023.2,   80.2, -999.0
17-05-2023, 00:43:39,    334,    0.0,    7.1,   0.00,   0.00, 1023.2,   80.1, -999.0
17-05-2023, 00:43:48,    334,    0.0,    7.1,   0.00,   0.00, 1023.2,   80.0, -999.0
17-05-2023, 00:43:58,    334,    0.0,    7.0,   0.00,   0.00, 1023.2,   80.2, -999.0
17-05-2023, 00:44:08,    334,    0.0,    7.1,   0.00,   0.00, 1023.2,   80.2, -999.0
17-05-2023, 00:44:19,    334,    0.0,    7.0,   0.00,   0.00, 1023.2,   80.4, -999.0
17-05-2023, 00:44:28,    334,    0.0,    7.1,   0.00,   0.00, 1023.2,   80.4, -999.0
17-05-2023, 00:44:38,    334,    0.0,    7.1,   0.00,   0.00, 1023.1,   80.4, -999.0
17-05-2023, 00:44:48,    334,    0.0,    7.0,   0.00,   0.00, 1023.2,   80.5, -999.0
17-05-2023, 00:44:58,    334,    0.0,    7.0,   0.00,   0.00, 1023.2,   80.5, -999.0
17-05-2023, 00:45:08,    334,    0.0,    7.0,   0.00,   0.00, 1023.1,   80.3, -999.0
17-05-2023, 00:45:18,    334,    0.0,    7.0,   0.00,   0.00, 1023.1,   80.4, -999.0
17-05-2023, 00:45:28,    334,    0.0,    7.1,   0.00,   0.00, 1023.2,   80.5, -999.0
17-05-2023, 00:45:38,    335,    0.0,    7.0,   0.00,   0.00, 1023.1,   80.8, -999.0
17-05-2023, 00:45:48,    335,    0.0,    7.1,   0.00,   0.00, 1023.2,   80.9, -999.0
17-05-2023, 00:45:58,    334,    0.0,    7.0,   0.00,   0.00, 1023.2,   80.9, -999.0
17-05-2023, 00:46:08,    334,    0.0,    7.1,   0.00,   0.00, 1023.2,   80.9, -999.0
17-05-2023, 00:46:18,    334,    0.0,    7.1,   0.00,   0.00, 1023.2,   80.9, -999.0
17-05-2023, 00:46:28,    334,    0.0,    7.0,   0.00,   0.00, 1023.1,   80.9, -999.0
17-05-2023, 00:46:38,    334,    0.0,    7.0,   0.00,   0.00, 1023.1,   81.0, -999.0
17-05-2023, 00:46:48,    334,    0.0,    7.0,   0.00,   0.00, 1023.2,   80.9, -999.0